QPF
0.00 0.00 0.00 0.00 0.00 0.00 0.00 0.00 0.00 0.00 0.00 0.00 0.00 0.02 0.00 0.01 0.01 0.05 0.07 0.11 0.12 0.05 0.02 0.00 0.00 0.03 0.00 0.01 0.00 0.01 0.03 0.19
0.00 0.00 0.00 0.00 0.00 0.00 0.00 0.00 0.00 0.00 0.00 0.00 0.00 0.00 0.00 0.00 0.02 0.01 0.03 0.09 0.06 0.05 0.00 0.00 0.01 0.03 0.00 0.00 0.00 0.00 0.01 0.37
0.00 0.00 0.00 0.00 0.00 0.00 0.00 0.00 0.00 0.00 0.00 0.00 0.00 0.00 0.00 0.00 0.00 0.00 0.01 0.05 0.02 0.03 0.00 0.00 0.00 0.02 0.00 0.00 0.00 0.00 0.02 0.15
0.00 0.00 0.00 0.00 0.00 0.00 0.00 0.00 0.00 0.00 0.00 0.00 0.00 0.00 0.00 0.00 0.00 0.00 0.00 0.00 0.00 0.00 0.00 0.00 0.00 0.00 0.00 0.00 0.00 0.00 0.01 0.07
0.00 0.00 0.00 0.00 0.00 0.00 0.00 0.00 0.00 0.00 0.00 0.00 0.00 0.00 0.00 0.00 0.00 0.00 0.00 0.00 0.00 0.00 0.00 0.00 0.00 0.00 0.00 0.00 0.00 0.00 0.05 0.15
0.00 0.00 0.00 0.00 0.00 0.00 0.00 0.00 0.00 0.00 0.00 0.00 0.00 0.00 0.00 0.00 0.00 0.00 0.00 0.00 0.00 0.00 0.01 0.00 0.00 0.00 0.00 0.00 0.00 0.00 0.02 0.05
0.00 0.00 0.00 0.00 0.00 0.00 0.00 0.00 0.00 0.00 0.00 0.00 0.00 0.00 0.00 0.00 0.00 0.00 0.00 0.00 0.00 0.00 0.00 0.00 0.00 0.00 0.01 0.00 0.00 0.00 0.00 0.00
0.00 0.00 0.00 0.00 0.00 0.00 0.00 0.00 0.00 0.00 0.00 0.00 0.00 0.00 0.00 0.00 0.00 0.00 0.00 0.00 0.00 0.00 0.00 0.00 0.00 0.00 0.03 0.01 0.04 0.03 0.00 0.01
0.00 0.00 0.00 0.00 0.00 0.00 0.00 0.00 0.00 0.00 0.00 0.00 0.00 0.00 0.00 0.00 0.00 0.00 0.00 0.00 0.00 0.00 0.00 0.02 0.02 0.01 0.03 0.01 0.03 0.05 0.02 0.01
0.00 0.00 0.00 0.00 0.00 0.00 0.00 0.00 0.00 0.00 0.00 0.00 0.00 0.00 0.00 0.00 0.00 0.00 0.00 0.00 0.00 0.02 0.03 0.04 0.02 0.00 0.03 0.03 0.07 0.05 0.03 0.04
0.00 0.00 0.00 0.00 0.00 0.00 0.00 0.00 0.00 0.00 0.00 0.00 0.00 0.00 0.00 0.00 0.00 0.00 0.00 0.00 0.00 0.00 0.00 0.04 0.03 0.01 0.02 0.03 0.07 0.08 0.04 0.09
0.00 0.00 0.00 0.00 0.00 0.00 0.00 0.00 0.00 0.00 0.00 0.00 0.00 0.00 0.00 0.00 0.00 0.00 0.00 0.00 0.00 0.00 0.00 0.01 0.01 0.01 0.01 0.01 0.10 0.15 0.09 0.03
0.00 0.00 0.00 0.00 0.00 0.00 0.00 0.00 0.00 0.02 0.00 0.00 0.00 0.00 0.00 0.00 0.00 0.00 0.00 0.00 0.00 0.00 0.00 0.00 0.00 0.00 0.02 0.05 0.05 0.09 0.13 0.07
0.00 0.00 0.00 0.00 0.00 0.00 0.00 0.00 0.00 0.00 0.01 0.00 0.00 0.00 0.00 0.00 0.00 0.00 0.00 0.00 0.00 0.00 0.00 0.00 0.00 0.00 0.01 0.04 0.08 0.14 0.18 0.14
0.00 0.00 0.00 0.00 0.00 0.00 0.00 0.00 0.00 0.00 0.00 0.00 0.00 0.00 0.00 0.00 0.00 0.00 0.00 0.00 0.00 0.00 0.00 0.00 0.00 0.00 0.00 0.03 0.08 0.09 0.07 0.13
0.00 0.00 0.00 0.00 0.00 0.00 0.00 0.00 0.00 0.00 0.00 0.00 0.00 0.00 0.00 0.00 0.00 0.00 0.00 0.00 0.00 0.00 0.00 0.00 0.00 0.00 0.00 0.01 0.01 0.01 0.03 0.08
0.00 0.00 0.00 0.00 0.00 0.00 0.00 0.00 0.00 0.00 0.00 0.00 0.00 0.00 0.01 0.00 0.00 0.00 0.00 0.00 0.00 0.00 0.00 0.00 0.00 0.00 0.00 0.00 0.01 0.02 0.06 0.10
0.00 0.00 0.00 0.00 0.00 0.00 0.00 0.00 0.00 0.00 0.00 0.00 0.00 0.00 0.01 0.01 0.00 0.00 0.00 0.00 0.00 0.00 0.00 0.00 0.00 0.00 0.01 0.00 0.01 0.03 0.03 0.03
0.00 0.00 0.00 0.00 0.00 0.00 0.00 0.00 0.00 0.00 0.00 0.00 0.00 0.00 0.00 0.01 0.01 0.00 0.00 0.00 0.00 0.00 0.00 0.00 0.00 0.00 0.00 0.00 0.00 0.02 0.05 0.05
0.00 0.00 0.00 0.00 0.00 0.00 0.00 0.00 0.00 0.00 0.00 0.01 0.00 0.00 0.00 0.01 0.01 0.01 0.00 0.00 0.00 0.00 0.00 0.00 0.00 0.00 0.00 0.01 0.03 0.06 0.08 0.09
MSLP
1008.90 1009.24 1009.48 1009.81 1010.03 1010.49 1011.00 1011.48 1011.80 1012.07 1012.46 1012.86 1013.27 1013.69 1014.05 1014.45 1014.79 1015.14 1015.47 1015.86 1016.17 1016.47 1016.73 1017.00 1017.29 1017.30 1017.62 1018.05 1018.38 1018.80 1019.56 1019.71
1009.02 1009.32 1009.49 1009.81 1010.16 1010.41 1010.75 1011.29 1011.76 1012.06 1012.39 1012.68 1013.06 1013.52 1013.92 1014.24 1014.63 1014.99 1015.37 1015.86 1016.16 1016.51 1016.80 1017.07 1017.21 1017.30 1017.67 1018.02 1018.58 1018.96 1019.35 1019.87
1008.88 1009.29 1009.36 1009.69 1010.08 1010.46 1010.76 1011.14 1011.61 1012.02 1012.46 1012.64 1012.89 1013.36 1013.76 1014.12 1014.41 1014.75 1015.22 1015.65 1016.00 1016.39 1016.74 1017.01 1017.30 1017.44 1017.67 1018.14 1018.70 1019.16 1019.41 1019.63
1008.57 1008.99 1009.20 1009.44 1009.78 1010.36 1010.82 1011.10 1011.50 1011.96 1012.36 1012.79 1012.97 1013.08 1013.47 1013.79 1014.09 1014.51 1014.98 1015.48 1015.85 1016.27 1016.67 1016.96 1017.27 1017.49 1017.69 1017.98 1018.60 1019.14 1019.51 1019.58
1007.89 1008.47 1008.82 1009.10 1009.45 1010.03 1010.60 1010.98 1011.36 1011.76 1012.06 1012.45 1012.90 1013.01 1013.14 1013.47 1013.89 1014.33 1014.77 1015.26 1015.81 1016.25 1016.78 1017.06 1017.18 1017.55 1017.79 1017.98 1018.59 1018.87 1019.32 1019.70
1006.96 1007.71 1008.30 1008.65 1008.97 1009.57 1009.98 1010.67 1010.98 1011.35 1011.64 1012.00 1012.41 1012.82 1013.00 1013.22 1013.54 1014.08 1014.62 1015.04 1015.59 1016.12 1016.68 1016.98 1017.09 1017.34 1017.72 1018.02 1018.48 1018.67 1018.88 1019.26
1005.83 1006.50 1007.28 1007.86 1008.48 1009.02 1009.46 1010.00 1010.37 1010.72 1011.21 1011.47 1011.79 1012.38 1012.80 1012.99 1013.28 1013.76 1014.23 1014.72 1015.16 1015.86 1016.28 1016.64 1017.00 1017.28 1017.63 1017.99 1018.45 1018.65 1018.79 1019.09
1004.92 1005.61 1006.16 1006.80 1007.32 1008.05 1008.70 1009.25 1009.69 1010.15 1010.61 1010.90 1011.22 1011.64 1012.26 1012.71 1013.15 1013.55 1013.86 1014.30 1014.79 1015.32 1015.81 1016.31 1016.92 1017.19 1017.45 1017.87 1018.30 1018.58 1018.80 1019.14
1004.37 1005.05 1005.70 1006.28 1006.70 1007.25 1007.88 1008.51 1009.06 1009.70 1009.97 1010.32 1010.72 1011.13 1011.57 1012.06 1012.71 1013.17 1013.44 1013.88 1014.45 1015.13 1015.62 1016.02 1016.77 1016.94 1017.41 1017.60 1018.07 1018.42 1018.67 1018.86
1003.46 1004.38 1005.22 1005.81 1006.42 1006.84 1007.23 1007.95 1008.63 1009.11 1009.50 1009.93 1010.27 1010.74 1011.11 1011.73 1012.37 1012.84 1013.15 1013.62 1014.05 1014.75 1015.49 1016.03 1016.49 1016.90 1017.38 1017.61 1017.94 1018.26 1018.41 1018.62
1002.67 1003.56 1004.47 1005.14 1005.85 1006.48 1006.78 1007.37 1008.28 1008.58 1009.07 1009.51 1009.98 1010.34 1010.83 1011.27 1011.98 1012.45 1012.91 1013.48 1013.95 1014.48 1015.22 1015.74 1016.30 1016.80 1017.15 1017.55 1017.81 1018.22 1018.38 1018.67
1001.86 1002.54 1003.36 1004.19 1005.10 1005.95 1006.51 1006.79 1007.67 1008.25 1008.70 1009.08 1009.50 1009.94 1010.43 1011.08 1011.69 1012.22 1012.63 1013.34 1013.86 1014.24 1014.88 1015.57 1015.92 1016.33 1016.79 1017.31 1017.71 1017.96 1018.14 1018.36
1001.61 1002.49 1003.24 1004.17 1005.20 1005.88 1006.56 1006.73 1007.13 1007.78 1008.35 1008.45 1008.93 1009.50 1009.97 1010.68 1011.27 1011.71 1012.35 1012.98 1013.54 1013.97 1014.61 1015.10 1015.77 1016.12 1016.71 1017.16 1017.35 1017.62 1017.92 1017.97
1001.97 1002.74 1003.57 1004.18 1004.79 1005.43 1005.84 1006.28 1006.60 1007.04 1007.70 1008.15 1008.35 1008.96 1009.48 1010.16 1010.93 1011.33 1012.04 1012.70 1013.23 1013.65 1013.99 1014.80 1015.29 1015.64 1016.21 1016.74 1017.27 1017.37 1017.47 1017.69
1002.12 1002.98 1003.78 1004.14 1004.45 1005.12 1005.89 1006.33 1006.81 1007.28 1007.58 1007.85 1008.30 1008.54 1009.14 1009.62 1010.24 1010.96 1011.68 1012.09 1012.61 1013.38 1013.76 1014.30 1014.86 1015.25 1015.43 1015.88 1016.54 1016.72 1017.09 1017.52
1002.06 1002.64 1003.25 1003.89 1004.61 1005.20 1005.17 1005.74 1006.45 1006.68 1007.03 1007.35 1007.79 1008.27 1008.75 1008.88 1009.67 1010.54 1011.18 1011.75 1012.15 1012.71 1013.28 1013.92 1014.47 1014.69 1015.31 1015.35 1015.48 1015.78 1016.35 1017.19
1002.39 1002.69 1003.00 1003.25 1003.66 1004.60 1005.38 1005.42 1005.64 1006.14 1006.75 1007.28 1007.52 1007.71 1008.21 1008.68 1009.16 1009.81 1010.66 1011.29 1011.91 1012.23 1012.87 1013.39 1013.88 1014.26 1014.55 1014.87 1015.37 1015.66 1015.49 1015.81
1003.73 1004.05 1004.26 1004.52 1004.66 1004.94 1005.16 1005.58 1005.54 1006.05 1006.58 1007.06 1007.44 1007.60 1007.92 1008.26 1008.66 1009.18 1010.03 1010.69 1011.39 1012.08 1012.48 1012.86 1013.12 1013.59 1013.95 1014.19 1014.37 1014.62 1014.80 1015.18
1004.70 1004.97 1005.12 1005.24 1005.57 1005.64 1005.82 1005.72 1005.27 1005.45 1005.74 1006.26 1006.75 1006.93 1007.17 1007.55 1008.06 1008.83 1009.44 1010.08 1010.96 1011.65 1012.01 1012.35 1012.64 1013.06 1013.37 1013.64 1013.90 1014.03 1014.24 1014.65
1005.70 1005.90 1006.08 1006.30 1006.45 1006.19 1005.99 1005.75 1005.37 1004.71 1005.04 1005.37 1005.83 1006.03 1006.33 1006.79 1007.49 1008.27 1008.95 1009.68 1010.37 1011.16 1011.48 1011.79 1012.23 1012.62 1012.98 1013.27 1013.55 1013.83 1014.05 1014.07
Thickness
5755 5754 5752 5749 5747 5743 5738 5733 5729 5725 5720 5717 5713 5708 5704 5699 5695 5690 5685 5679 5676 5674 5672 5670 5668 5669 5665 5658 5659 5654 5646 5649
5750 5748 5748 5745 5743 5741 5738 5732 5726 5722 5718 5715 5712 5707 5702 5699 5693 5688 5682 5676 5672 5669 5668 5666 5665 5665 5661 5656 5654 5649 5644 5641
5747 5744 5743 5741 5738 5736 5734 5730 5724 5720 5714 5711 5710 5705 5701 5697 5693 5687 5680 5675 5670 5666 5664 5662 5661 5661 5659 5654 5648 5645 5642 5639
5744 5742 5741 5738 5735 5732 5729 5726 5722 5717 5712 5707 5706 5705 5700 5696 5692 5687 5680 5673 5669 5664 5660 5659 5658 5657 5657 5654 5645 5643 5639 5637
5744 5741 5739 5737 5735 5730 5725 5723 5719 5715 5711 5707 5703 5701 5699 5696 5691 5685 5679 5673 5667 5661 5656 5655 5655 5652 5652 5650 5644 5643 5638 5635
5747 5742 5737 5735 5733 5729 5724 5720 5718 5714 5711 5707 5703 5699 5697 5695 5691 5684 5678 5672 5667 5660 5654 5651 5652 5647 5647 5645 5641 5641 5639 5636
5749 5746 5740 5736 5730 5729 5724 5720 5717 5714 5710 5706 5703 5698 5694 5691 5689 5683 5677 5671 5667 5660 5654 5651 5648 5645 5642 5639 5636 5635 5634 5632
5750 5745 5743 5739 5736 5730 5725 5722 5715 5712 5709 5706 5703 5699 5694 5690 5686 5681 5675 5671 5666 5661 5655 5650 5645 5641 5640 5635 5631 5628 5628 5626
5745 5743 5742 5737 5733 5729 5725 5722 5717 5712 5708 5706 5702 5698 5694 5690 5684 5680 5675 5670 5664 5658 5654 5650 5643 5639 5636 5632 5628 5623 5621 5620
5742 5738 5738 5736 5731 5725 5723 5720 5716 5711 5707 5703 5699 5694 5691 5686 5681 5677 5673 5667 5663 5657 5651 5646 5641 5637 5631 5627 5623 5618 5617 5617
5742 5734 5732 5734 5729 5723 5720 5716 5712 5708 5704 5699 5695 5692 5687 5685 5679 5674 5669 5664 5659 5654 5647 5644 5638 5633 5628 5623 5618 5613 5611 5610
5744 5737 5733 5733 5729 5721 5717 5714 5708 5705 5701 5698 5693 5689 5684 5680 5675 5671 5665 5659 5654 5650 5644 5638 5635 5630 5625 5620 5613 5609 5607 5608
5731 5732 5730 5724 5719 5713 5706 5707 5705 5701 5696 5695 5692 5687 5682 5676 5673 5669 5664 5657 5652 5647 5641 5636 5630 5626 5619 5614 5610 5607 5605 5605
5719 5720 5717 5714 5713 5713 5708 5702 5703 5704 5695 5691 5690 5685 5680 5674 5668 5666 5660 5654 5649 5644 5641 5633 5628 5623 5616 5609 5603 5603 5602 5600
5708 5708 5705 5704 5706 5704 5701 5696 5693 5692 5690 5686 5683 5680 5676 5672 5668 5663 5656 5653 5648 5640 5636 5631 5625 5621 5617 5611 5601 5602 5599 5595
5702 5703 5701 5695 5692 5690 5695 5692 5686 5687 5684 5682 5679 5676 5673 5670 5666 5660 5653 5649 5646 5640 5633 5627 5622 5618 5610 5610 5608 5605 5598 5590
5688 5695 5695 5693 5690 5684 5681 5685 5688 5684 5678 5674 5672 5671 5670 5667 5663 5659 5651 5645 5641 5638 5631 5626 5620 5615 5610 5606 5602 5600 5601 5597
5667 5671 5672 5672 5675 5675 5676 5674 5677 5674 5671 5666 5663 5663 5663 5662 5660 5657 5650 5644 5639 5632 5628 5623 5618 5613 5607 5603 5602 5602 5601 5599
5649 5653 5657 5656 5655 5658 5658 5662 5669 5669 5667 5663 5659 5659 5661 5659 5656 5651 5647 5642 5636 5629 5625 5620 5614 5608 5603 5599 5597 5599 5600 5598
5626 5632 5634 5637 5639 5643 5647 5650 5658 5666 5664 5662 5659 5659 5659 5657 5653 5647 5643 5637 5633 5626 5622 5618 5610 5604 5600 5595 5593 5594 5595 5594